sat.trackr.live / text

‹ back to catalog

STARLINK-4160

NORAD 53030 · 2022-076AW

PAYLOAD ACTIVE UNKNOWN

§ Identity

Operator
Country
US
Launch date
2022-07-07
Launch site
AFETR
Launch vehicle
Mass (kg)
RCS (m²)

Purposes: comms

External: N2YO · Heavens-Above · Gunter

§ Orbital elements

Epoch: 2026-09-20T00:16:06.203424Z

Period
93.85 min
Inclination
53.1577°
Eccentricity
0.0001285
Mean motion
15.34385834 rev/d
Perigee alt
461.9 km
Apogee alt
463.6 km
Semi-major
6,840.9 km
B*
7.2243e-7
RAAN
275.7853°
Arg perigee
85.6759°
Mean anomaly
274.4390°
Rev number
23,254

§ Raw data

STARLINK-41601 53030U 22076AW  26263.01118291 -.00000352  00000+0  72243-6 0  99942 53030  53.1577 275.7853 0001285  85.6759 274.4390 15.34385834232543

JSON: /api/v1/satellites/53030 · /tle

For live sub-satellite position, see the globe view (requires WebGL).

§ Visibility from observer

Set your observer location to see the next 7 days of passes ≥ 10°. The values pass through the URL so the page stays shareable.

No JS? Fill the form by hand. The geolocation button needs JavaScript.